Location: Bald Rock
(37.3738°N, 119.9354°W)
Time: 22:38:05
(UTC+00:00)

Cosmos 1544 Rocket - Pass Details

Date: 08 September 2024
Orbit: 601 x 625 km, 82.5° (Epoch: 12 October)

Event Time Altitude Azimuth Distance (km) Brightness Sun altitude
Exits shadow 12:05:43 40° 249° (WSW) 902 3.9 -18.2°
Maximum altitude 12:06:32 45° 280° (W) 834 3.8 -18.1°
Drops below altitude 10° 12:10:42 10° 354° (N) 1,970 6.3 -17.3°
Sets 12:13:02 0° 0° (N) 2,883 7.3 -16.9°
